QPF
0.03 0.04 0.04 0.03 0.02 0.02 0.03 0.04 0.05 0.05 0.04 0.04 0.04 0.04 0.04 0.03 0.03 0.04 0.03 0.04 0.02 0.02 0.02 0.02 0.02 0.02 0.02 0.03 0.04 0.02 0.03 0.02 0.02 0.01 0.02 0.02 0.02 0.02 0.02 0.02 0.02 0.01 0.01
0.02 0.03 0.04 0.03 0.04 0.03 0.05 0.03 0.03 0.03 0.03 0.04 0.04 0.03 0.04 0.02 0.02 0.02 0.02 0.03 0.02 0.02 0.02 0.02 0.02 0.02 0.03 0.04 0.04 0.03 0.03 0.02 0.02 0.02 0.02 0.02 0.02 0.02 0.02 0.02 0.02 0.02 0.02
0.01 0.02 0.03 0.03 0.06 0.03 0.03 0.03 0.03 0.03 0.02 0.04 0.04 0.03 0.04 0.06 0.03 0.02 0.02 0.02 0.01 0.02 0.03 0.03 0.04 0.03 0.03 0.03 0.03 0.03 0.02 0.02 0.01 0.01 0.01 0.01 0.01 0.01 0.01 0.02 0.02 0.02 0.02
0.02 0.03 0.04 0.04 0.03 0.03 0.03 0.03 0.03 0.03 0.04 0.05 0.05 0.03 0.04 0.05 0.04 0.04 0.04 0.04 0.03 0.03 0.03 0.03 0.03 0.03 0.04 0.03 0.03 0.02 0.02 0.02 0.02 0.02 0.03 0.02 0.02 0.03 0.03 0.02 0.02 0.02 0.02
0.03 0.04 0.04 0.03 0.03 0.04 0.04 0.03 0.04 0.03 0.04 0.04 0.04 0.04 0.04 0.05 0.05 0.06 0.07 0.07 0.06 0.05 0.05 0.03 0.03 0.02 0.03 0.04 0.04 0.05 0.04 0.04 0.03 0.03 0.04 0.03 0.03 0.03 0.03 0.03 0.03 0.03 0.03
0.03 0.04 0.03 0.02 0.03 0.05 0.04 0.04 0.05 0.03 0.03 0.03 0.06 0.07 0.06 0.06 0.07 0.10 0.08 0.09 0.09 0.06 0.06 0.06 0.04 0.03 0.04 0.05 0.05 0.07 0.07 0.07 0.05 0.05 0.04 0.03 0.02 0.02 0.02 0.02 0.02 0.03 0.03
0.03 0.04 0.04 0.03 0.04 0.04 0.03 0.05 0.06 0.03 0.03 0.06 0.10 0.11 0.09 0.08 0.09 0.09 0.09 0.15 0.15 0.12 0.11 0.10 0.09 0.07 0.06 0.06 0.04 0.05 0.06 0.06 0.06 0.06 0.06 0.05 0.03 0.02 0.02 0.01 0.01 0.02 0.03
0.03 0.03 0.03 0.02 0.03 0.03 0.03 0.04 0.05 0.05 0.06 0.08 0.10 0.08 0.06 0.07 0.07 0.08 0.12 0.16 0.18 0.17 0.13 0.13 0.11 0.10 0.09 0.07 0.03 0.03 0.04 0.05 0.05 0.05 0.05 0.06 0.05 0.05 0.04 0.03 0.02 0.02 0.03
0.04 0.05 0.04 0.03 0.03 0.02 0.03 0.03 0.05 0.04 0.04 0.06 0.08 0.08 0.05 0.04 0.06 0.06 0.08 0.11 0.13 0.12 0.13 0.13 0.11 0.11 0.09 0.10 0.08 0.06 0.04 0.03 0.05 0.06 0.06 0.06 0.05 0.04 0.04 0.04 0.04 0.04 0.04
0.04 0.04 0.05 0.05 0.04 0.03 0.03 0.03 0.05 0.05 0.04 0.04 0.06 0.07 0.07 0.05 0.06 0.05 0.04 0.06 0.08 0.10 0.13 0.16 0.17 0.15 0.11 0.09 0.09 0.08 0.06 0.05 0.07 0.07 0.06 0.06 0.06 0.05 0.06 0.06 0.05 0.06 0.07
0.05 0.05 0.04 0.04 0.04 0.04 0.04 0.03 0.04 0.05 0.04 0.04 0.07 0.08 0.07 0.06 0.05 0.03 0.03 0.04 0.08 0.10 0.10 0.09 0.11 0.13 0.13 0.13 0.12 0.10 0.09 0.10 0.09 0.10 0.09 0.08 0.08 0.08 0.07 0.06 0.07 0.09 0.09
0.05 0.05 0.03 0.03 0.04 0.05 0.04 0.03 0.04 0.04 0.05 0.05 0.06 0.07 0.07 0.05 0.05 0.03 0.02 0.02 0.04 0.05 0.07 0.07 0.09 0.09 0.12 0.12 0.14 0.15 0.16 0.16 0.13 0.14 0.11 0.09 0.08 0.08 0.07 0.07 0.07 0.09 0.10
0.04 0.06 0.04 0.05 0.04 0.05 0.04 0.04 0.05 0.05 0.04 0.04 0.05 0.06 0.07 0.06 0.06 0.05 0.04 0.03 0.05 0.06 0.05 0.04 0.07 0.07 0.08 0.11 0.15 0.18 0.17 0.18 0.15 0.11 0.10 0.09 0.07 0.07 0.09 0.10 0.10 0.11 0.11
0.05 0.06 0.05 0.05 0.05 0.06 0.05 0.05 0.06 0.06 0.04 0.03 0.03 0.05 0.06 0.06 0.07 0.07 0.07 0.06 0.07 0.07 0.04 0.04 0.05 0.06 0.07 0.07 0.11 0.16 0.16 0.13 0.13 0.12 0.11 0.10 0.08 0.07 0.07 0.08 0.10 0.11 0.11
0.04 0.04 0.03 0.06 0.06 0.05 0.06 0.07 0.07 0.06 0.05 0.04 0.04 0.06 0.07 0.06 0.08 0.09 0.09 0.08 0.07 0.05 0.04 0.04 0.05 0.05 0.06 0.06 0.08 0.10 0.11 0.10 0.10 0.10 0.10 0.10 0.08 0.06 0.05 0.05 0.06 0.07 0.07
0.04 0.04 0.03 0.06 0.06 0.05 0.05 0.07 0.07 0.07 0.07 0.06 0.05 0.05 0.05 0.04 0.06 0.09 0.08 0.08 0.08 0.06 0.04 0.04 0.05 0.06 0.07 0.09 0.13 0.12 0.10 0.09 0.08 0.06 0.05 0.05 0.05 0.04 0.05 0.06 0.05 0.05 0.05
0.06 0.05 0.04 0.04 0.05 0.05 0.06 0.07 0.06 0.07 0.08 0.07 0.05 0.04 0.04 0.04 0.05 0.06 0.07 0.07 0.08 0.08 0.06 0.05 0.06 0.07 0.07 0.07 0.08 0.10 0.10 0.07 0.07 0.07 0.05 0.05 0.05 0.06 0.05 0.05 0.05 0.05 0.06
0.05 0.05 0.05 0.05 0.05 0.06 0.07 0.07 0.07 0.08 0.08 0.07 0.07 0.05 0.06 0.07 0.06 0.07 0.08 0.08 0.08 0.08 0.06 0.04 0.05 0.05 0.04 0.06 0.07 0.07 0.06 0.04 0.03 0.04 0.05 0.05 0.05 0.05 0.05 0.05 0.06 0.06 0.05
0.03 0.03 0.04 0.04 0.04 0.05 0.06 0.06 0.07 0.07 0.07 0.06 0.06 0.05 0.07 0.09 0.08 0.08 0.07 0.07 0.06 0.06 0.04 0.03 0.02 0.03 0.04 0.05 0.05 0.04 0.04 0.04 0.04 0.04 0.04 0.04 0.05 0.04 0.04 0.04 0.04 0.03 0.03
0.04 0.04 0.03 0.03 0.03 0.04 0.05 0.05 0.06 0.06 0.06 0.07 0.07 0.07 0.08 0.07 0.07 0.07 0.05 0.05 0.04 0.03 0.03 0.03 0.02 0.04 0.05 0.06 0.05 0.04 0.03 0.03 0.04 0.05 0.04 0.04 0.03 0.04 0.05 0.05 0.04 0.05 0.05
0.04 0.03 0.03 0.03 0.04 0.04 0.04 0.04 0.04 0.04 0.04 0.05 0.06 0.06 0.06 0.06 0.06 0.07 0.05 0.05 0.04 0.03 0.03 0.03 0.03 0.02 0.03 0.04 0.03 0.04 0.03 0.03 0.04 0.03 0.03 0.02 0.02 0.02 0.03 0.04 0.05 0.05 0.04
0.03 0.02 0.02 0.03 0.04 0.03 0.03 0.03 0.03 0.03 0.03 0.04 0.04 0.05 0.06 0.06 0.08 0.09 0.07 0.06 0.04 0.03 0.03 0.03 0.03 0.02 0.02 0.02 0.02 0.02 0.02 0.02 0.02 0.02 0.01 0.02 0.02 0.02 0.02 0.02 0.03 0.03 0.03
0.03 0.03 0.02 0.03 0.04 0.04 0.04 0.04 0.04 0.03 0.04 0.04 0.04 0.06 0.06 0.06 0.07 0.07 0.07 0.05 0.04 0.03 0.03 0.03 0.03 0.03 0.03 0.03 0.03 0.02 0.02 0.01 0.01 0.01 0.01 0.01 0.01 0.01 0.01 0.02 0.03 0.03 0.02
0.05 0.04 0.03 0.04 0.04 0.05 0.06 0.05 0.04 0.03 0.04 0.04 0.04 0.04 0.04 0.04 0.05 0.05 0.05 0.04 0.03 0.03 0.03 0.03 0.03 0.03 0.03 0.03 0.03 0.02 0.02 0.03 0.03 0.02 0.02 0.01 0.01 0.01 0.01 0.01 0.02 0.01 0.01
0.07 0.06 0.05 0.04 0.05 0.05 0.05 0.05 0.04 0.03 0.04 0.05 0.05 0.04 0.05 0.05 0.06 0.06 0.05 0.04 0.04 0.04 0.04 0.03 0.03 0.03 0.03 0.02 0.02 0.01 0.01 0.01 0.01 0.01 0.01 0.01 0.01 0.01 0.01 0.01 0.01 0.01 0.01
0.12 0.11 0.09 0.07 0.06 0.06 0.05 0.05 0.05 0.08 0.10 0.09 0.06 0.04 0.04 0.05 0.08 0.08 0.06 0.05 0.03 0.02 0.02 0.01 0.01 0.01 0.01 0.01 0.01 0.01 0.01 0.02 0.02 0.02 0.02 0.02 0.02 0.02 0.02 0.01 0.01 0.01 0.00
MSLP
1016.13 1016.25 1016.31 1016.34 1016.37 1016.44 1016.56 1016.73 1016.93 1017.15 1017.35 1017.52 1017.66 1017.78 1017.88 1017.99 1018.13 1018.30 1018.51 1018.75 1019.01 1019.27 1019.51 1019.73 1019.91 1020.07 1020.21 1020.32 1020.43 1020.52 1020.61 1020.69 1020.78 1020.88 1020.98 1021.11 1021.24 1021.39 1021.53 1021.67 1021.78 1021.86 1021.92
1016.31 1016.50 1016.62 1016.70 1016.76 1016.83 1016.93 1017.05 1017.21 1017.37 1017.54 1017.68 1017.81 1017.92 1018.02 1018.12 1018.23 1018.36 1018.52 1018.71 1018.91 1019.12 1019.34 1019.55 1019.75 1019.93 1020.09 1020.23 1020.35 1020.45 1020.53 1020.60 1020.68 1020.76 1020.86 1020.98 1021.11 1021.25 1021.39 1021.51 1021.61 1021.68 1021.73
1016.35 1016.60 1016.79 1016.93 1017.04 1017.13 1017.23 1017.34 1017.46 1017.59 1017.73 1017.86 1017.98 1018.09 1018.18 1018.26 1018.34 1018.42 1018.51 1018.62 1018.74 1018.89 1019.06 1019.25 1019.45 1019.64 1019.83 1020.00 1020.15 1020.26 1020.35 1020.42 1020.49 1020.56 1020.64 1020.75 1020.86 1020.99 1021.11 1021.22 1021.31 1021.37 1021.41
1016.23 1016.53 1016.78 1016.99 1017.17 1017.31 1017.43 1017.54 1017.66 1017.77 1017.89 1018.02 1018.14 1018.24 1018.33 1018.40 1018.44 1018.46 1018.48 1018.50 1018.53 1018.60 1018.71 1018.85 1019.04 1019.24 1019.45 1019.64 1019.81 1019.94 1020.04 1020.12 1020.17 1020.23 1020.29 1020.37 1020.47 1020.58 1020.68 1020.78 1020.85 1020.91 1020.96
1015.98 1016.30 1016.61 1016.89 1017.14 1017.34 1017.50 1017.64 1017.76 1017.88 1018.00 1018.12 1018.25 1018.36 1018.45 1018.50 1018.52 1018.50 1018.44 1018.38 1018.33 1018.31 1018.34 1018.43 1018.58 1018.77 1018.98 1019.18 1019.36 1019.51 1019.61 1019.68 1019.73 1019.77 1019.81 1019.87 1019.94 1020.03 1020.11 1020.19 1020.26 1020.32 1020.38
1015.65 1015.98 1016.32 1016.66 1016.97 1017.24 1017.46 1017.63 1017.78 1017.90 1018.03 1018.16 1018.29 1018.41 1018.51 1018.57 1018.57 1018.52 1018.42 1018.30 1018.17 1018.08 1018.04 1018.06 1018.16 1018.31 1018.49 1018.68 1018.86 1019.00 1019.09 1019.15 1019.18 1019.20 1019.22 1019.25 1019.31 1019.37 1019.45 1019.52 1019.58 1019.64 1019.70
1015.32 1015.62 1015.98 1016.36 1016.72 1017.05 1017.32 1017.53 1017.70 1017.84 1017.98 1018.12 1018.26 1018.40 1018.52 1018.59 1018.61 1018.55 1018.43 1018.27 1018.10 1017.94 1017.83 1017.79 1017.82 1017.92 1018.05 1018.20 1018.34 1018.45 1018.52 1018.56 1018.57 1018.56 1018.57 1018.59 1018.63 1018.69 1018.75 1018.82 1018.88 1018.93 1018.98
1015.05 1015.31 1015.66 1016.05 1016.44 1016.81 1017.12 1017.36 1017.55 1017.71 1017.85 1018.00 1018.16 1018.32 1018.47 1018.57 1018.62 1018.58 1018.48 1018.31 1018.11 1017.92 1017.75 1017.65 1017.61 1017.63 1017.69 1017.78 1017.86 1017.92 1017.95 1017.96 1017.95 1017.93 1017.93 1017.95 1017.99 1018.04 1018.11 1018.17 1018.23 1018.27 1018.30
1014.87 1015.07 1015.39 1015.77 1016.17 1016.56 1016.89 1017.15 1017.36 1017.52 1017.67 1017.82 1018.00 1018.18 1018.36 1018.50 1018.59 1018.60 1018.53 1018.39 1018.20 1017.98 1017.78 1017.62 1017.51 1017.45 1017.43 1017.43 1017.44 1017.45 1017.43 1017.41 1017.38 1017.36 1017.37 1017.39 1017.45 1017.51 1017.58 1017.64 1017.68 1017.70 1017.70
1014.77 1014.91 1015.18 1015.54 1015.93 1016.31 1016.64 1016.91 1017.12 1017.28 1017.43 1017.59 1017.77 1017.98 1018.19 1018.38 1018.52 1018.59 1018.57 1018.47 1018.30 1018.09 1017.86 1017.65 1017.47 1017.33 1017.23 1017.16 1017.09 1017.04 1016.98 1016.94 1016.91 1016.90 1016.93 1016.98 1017.06 1017.15 1017.23 1017.28 1017.30 1017.28 1017.23
1014.73 1014.81 1015.03 1015.34 1015.70 1016.07 1016.39 1016.65 1016.85 1017.00 1017.15 1017.30 1017.49 1017.72 1017.96 1018.19 1018.39 1018.52 1018.55 1018.50 1018.36 1018.16 1017.93 1017.68 1017.45 1017.25 1017.07 1016.93 1016.80 1016.70 1016.62 1016.57 1016.56 1016.58 1016.64 1016.74 1016.85 1016.96 1017.05 1017.09 1017.09 1017.02 1016.90
1014.67 1014.71 1014.88 1015.15 1015.48 1015.81 1016.11 1016.36 1016.54 1016.69 1016.82 1016.97 1017.17 1017.40 1017.67 1017.94 1018.18 1018.36 1018.45 1018.44 1018.34 1018.16 1017.93 1017.67 1017.40 1017.15 1016.92 1016.72 1016.56 1016.44 1016.35 1016.32 1016.33 1016.40 1016.51 1016.65 1016.80 1016.94 1017.03 1017.06 1017.02 1016.89 1016.69
1014.57 1014.58 1014.71 1014.95 1015.24 1015.55 1015.82 1016.04 1016.21 1016.34 1016.47 1016.61 1016.80 1017.05 1017.33 1017.62 1017.90 1018.12 1018.26 1018.29 1018.23 1018.07 1017.85 1017.58 1017.30 1017.02 1016.77 1016.55 1016.38 1016.25 1016.18 1016.18 1016.24 1016.35 1016.51 1016.70 1016.89 1017.04 1017.14 1017.15 1017.06 1016.86 1016.59
1014.40 1014.40 1014.52 1014.73 1015.00 1015.28 1015.53 1015.73 1015.88 1016.00 1016.11 1016.25 1016.44 1016.68 1016.97 1017.28 1017.58 1017.83 1017.99 1018.06 1018.03 1017.90 1017.70 1017.45 1017.17 1016.90 1016.64 1016.43 1016.26 1016.16 1016.12 1016.15 1016.26 1016.42 1016.63 1016.86 1017.07 1017.24 1017.32 1017.30 1017.17 1016.91 1016.56
1014.18 1014.20 1014.32 1014.53 1014.78 1015.04 1015.27 1015.46 1015.59 1015.70 1015.80 1015.93 1016.11 1016.35 1016.64 1016.95 1017.26 1017.52 1017.71 1017.81 1017.81 1017.71 1017.53 1017.31 1017.06 1016.81 1016.58 1016.39 1016.25 1016.18 1016.18 1016.25 1016.39 1016.59 1016.83 1017.08 1017.30 1017.47 1017.54 1017.50 1017.32 1017.01 1016.59
1013.96 1014.01 1014.15 1014.37 1014.63 1014.88 1015.11 1015.28 1015.40 1015.49 1015.58 1015.69 1015.86 1016.09 1016.37 1016.68 1016.99 1017.26 1017.47 1017.59 1017.61 1017.55 1017.41 1017.22 1017.01 1016.80 1016.61 1016.45 1016.36 1016.32 1016.35 1016.45 1016.61 1016.83 1017.08 1017.33 1017.55 1017.71 1017.76 1017.69 1017.48 1017.13 1016.67
1013.76 1013.87 1014.06 1014.31 1014.58 1014.85 1015.06 1015.22 1015.33 1015.41 1015.48 1015.57 1015.72 1015.94 1016.20 1016.50 1016.81 1017.08 1017.30 1017.44 1017.49 1017.47 1017.37 1017.23 1017.07 1016.90 1016.76 1016.65 1016.59 1016.58 1016.63 1016.74 1016.90 1017.11 1017.35 1017.58 1017.79 1017.92 1017.96 1017.88 1017.65 1017.29 1016.80
1013.64 1013.81 1014.06 1014.36 1014.66 1014.94 1015.16 1015.31 1015.40 1015.45 1015.50 1015.58 1015.71 1015.90 1016.14 1016.43 1016.73 1017.01 1017.24 1017.39 1017.48 1017.49 1017.44 1017.35 1017.24 1017.12 1017.02 1016.95 1016.92 1016.93 1016.98 1017.08 1017.22 1017.40 1017.60 1017.81 1017.98 1018.10 1018.13 1018.04 1017.82 1017.47 1017.00
1013.59 1013.83 1014.14 1014.49 1014.84 1015.13 1015.36 1015.50 1015.58 1015.61 1015.63 1015.68 1015.79 1015.95 1016.18 1016.46 1016.75 1017.03 1017.26 1017.44 1017.55 1017.60 1017.59 1017.55 1017.49 1017.42 1017.36 1017.32 1017.31 1017.31 1017.35 1017.43 1017.53 1017.67 1017.83 1017.99 1018.13 1018.23 1018.26 1018.18 1017.99 1017.68 1017.25
1013.59 1013.90 1014.28 1014.68 1015.06 1015.37 1015.60 1015.74 1015.80 1015.81 1015.81 1015.84 1015.92 1016.07 1016.28 1016.54 1016.83 1017.10 1017.35 1017.54 1017.67 1017.75 1017.78 1017.78 1017.76 1017.74 1017.71 1017.70 1017.69 1017.69 1017.71 1017.74 1017.80 1017.88 1017.99 1018.10 1018.21 1018.30 1018.34 1018.29 1018.15 1017.90 1017.54
1013.60 1013.97 1014.40 1014.85 1015.26 1015.59 1015.82 1015.96 1016.01 1016.00 1015.99 1016.00 1016.06 1016.19 1016.39 1016.65 1016.92 1017.20 1017.44 1017.65 1017.80 1017.90 1017.96 1018.00 1018.01 1018.02 1018.02 1018.02 1018.01 1018.00 1017.99 1017.99 1018.00 1018.03 1018.08 1018.15 1018.24 1018.32 1018.37 1018.36 1018.28 1018.10 1017.83
1013.59 1014.00 1014.47 1014.94 1015.37 1015.71 1015.95 1016.08 1016.13 1016.12 1016.10 1016.10 1016.17 1016.30 1016.49 1016.74 1017.01 1017.28 1017.53 1017.73 1017.89 1018.00 1018.08 1018.14 1018.18 1018.21 1018.23 1018.24 1018.24 1018.22 1018.19 1018.15 1018.12 1018.10 1018.11 1018.14 1018.20 1018.28 1018.35 1018.39 1018.37 1018.27 1018.08
1013.55 1013.98 1014.46 1014.94 1015.37 1015.71 1015.95 1016.08 1016.13 1016.13 1016.12 1016.14 1016.22 1016.36 1016.56 1016.81 1017.08 1017.34 1017.57 1017.77 1017.93 1018.04 1018.13 1018.20 1018.25 1018.30 1018.34 1018.36 1018.37 1018.34 1018.30 1018.24 1018.17 1018.12 1018.09 1018.10 1018.14 1018.21 1018.29 1018.36 1018.40 1018.37 1018.27
1013.50 1013.92 1014.38 1014.85 1015.27 1015.60 1015.83 1015.97 1016.03 1016.06 1016.08 1016.13 1016.23 1016.39 1016.61 1016.86 1017.12 1017.38 1017.60 1017.78 1017.92 1018.02 1018.11 1018.18 1018.24 1018.30 1018.36 1018.40 1018.41 1018.40 1018.35 1018.28 1018.20 1018.12 1018.06 1018.04 1018.06 1018.12 1018.21 1018.30 1018.38 1018.41 1018.38
1013.46 1013.86 1014.29 1014.72 1015.11 1015.43 1015.65 1015.80 1015.89 1015.94 1016.00 1016.09 1016.24 1016.43 1016.66 1016.92 1017.18 1017.41 1017.61 1017.77 1017.89 1017.98 1018.05 1018.12 1018.18 1018.26 1018.33 1018.39 1018.42 1018.42 1018.38 1018.31 1018.22 1018.12 1018.05 1018.00 1018.00 1018.04 1018.12 1018.22 1018.31 1018.38 1018.40
1013.49 1013.85 1014.24 1014.63 1014.99 1015.27 1015.49 1015.65 1015.76 1015.85 1015.95 1016.09 1016.27 1016.49 1016.74 1017.00 1017.25 1017.47 1017.64 1017.77 1017.87 1017.93 1017.99 1018.05 1018.13 1018.21 1018.29 1018.37 1018.42 1018.44 1018.42 1018.36 1018.26 1018.16 1018.07 1018.00 1017.97 1017.99 1018.05 1018.13 1018.23 1018.31 1018.36
Thickness
5753 5752 5751 5751 5751 5750 5750 5749 5750 5750 5750 5750 5750 5750 5749 5748 5747 5746 5746 5745 5744 5743 5741 5740 5738 5736 5735 5733 5731 5730 5729 5728 5726 5725 5724 5723 5721 5720 5718 5717 5715 5714 5713
5755 5753 5752 5752 5751 5751 5750 5750 5750 5750 5750 5750 5750 5750 5749 5748 5748 5747 5746 5744 5743 5742 5741 5740 5739 5737 5735 5733 5731 5730 5729 5728 5726 5725 5724 5722 5721 5719 5718 5716 5715 5713 5712
5756 5755 5753 5752 5752 5751 5751 5750 5750 5750 5750 5750 5749 5749 5749 5748 5747 5746 5745 5744 5743 5742 5741 5740 5739 5737 5736 5734 5732 5730 5729 5728 5726 5725 5724 5722 5720 5719 5717 5716 5714 5713 5711
5757 5756 5754 5753 5753 5752 5751 5750 5750 5749 5748 5748 5747 5748 5748 5748 5747 5745 5745 5744 5743 5742 5742 5740 5739 5737 5736 5734 5732 5731 5729 5728 5726 5725 5723 5722 5720 5719 5717 5716 5714 5712 5711
5757 5757 5756 5755 5754 5752 5752 5751 5750 5748 5746 5746 5746 5747 5747 5748 5747 5746 5745 5744 5743 5742 5741 5740 5738 5737 5736 5734 5733 5731 5730 5728 5727 5725 5723 5721 5720 5718 5717 5716 5714 5712 5711
5759 5758 5756 5755 5754 5753 5751 5751 5749 5748 5747 5746 5746 5745 5745 5746 5746 5746 5745 5744 5743 5742 5740 5739 5738 5737 5735 5734 5732 5731 5730 5728 5726 5724 5723 5721 5720 5718 5717 5715 5714 5712 5710
5759 5758 5757 5755 5754 5752 5751 5751 5749 5747 5745 5746 5742 5739 5741 5744 5744 5744 5744 5743 5742 5740 5739 5738 5737 5735 5734 5733 5732 5731 5730 5728 5726 5724 5722 5721 5720 5718 5716 5715 5713 5712 5710
5760 5759 5757 5756 5755 5753 5751 5750 5749 5746 5745 5745 5740 5733 5730 5733 5738 5742 5741 5741 5740 5739 5737 5736 5734 5733 5732 5731 5731 5730 5729 5727 5726 5724 5722 5720 5719 5717 5716 5714 5712 5710 5709
5762 5761 5759 5757 5756 5754 5751 5750 5750 5746 5742 5743 5743 5736 5727 5724 5729 5735 5737 5739 5738 5737 5736 5735 5733 5731 5730 5729 5728 5728 5728 5727 5726 5724 5722 5720 5718 5716 5715 5713 5711 5709 5708
5763 5762 5760 5758 5757 5755 5753 5752 5751 5749 5745 5740 5740 5741 5738 5735 5727 5725 5730 5734 5735 5734 5734 5734 5732 5730 5728 5727 5726 5726 5726 5725 5724 5722 5721 5719 5717 5715 5713 5711 5709 5707 5706
5764 5762 5761 5759 5757 5755 5754 5753 5751 5749 5747 5743 5740 5739 5737 5735 5733 5726 5723 5726 5729 5730 5731 5731 5730 5728 5727 5725 5724 5723 5723 5722 5721 5720 5719 5717 5716 5714 5711 5709 5708 5706 5704
5763 5762 5761 5759 5758 5756 5754 5753 5752 5750 5748 5745 5743 5741 5738 5734 5731 5728 5723 5723 5723 5726 5728 5728 5728 5727 5725 5724 5722 5722 5721 5720 5718 5717 5715 5714 5713 5711 5709 5707 5706 5704 5702
5760 5761 5760 5759 5757 5756 5755 5753 5751 5749 5748 5745 5743 5742 5740 5738 5736 5732 5726 5722 5721 5722 5723 5724 5725 5725 5724 5722 5721 5720 5718 5717 5714 5713 5712 5711 5710 5708 5706 5705 5703 5701 5698
5762 5762 5760 5759 5757 5756 5754 5753 5750 5749 5747 5746 5744 5742 5740 5739 5737 5734 5729 5723 5718 5717 5718 5719 5721 5721 5720 5719 5717 5716 5714 5712 5710 5709 5708 5706 5705 5703 5701 5700 5698 5696 5694
5764 5762 5760 5758 5757 5755 5753 5751 5748 5747 5745 5744 5743 5741 5739 5739 5737 5735 5732 5728 5720 5713 5712 5714 5715 5717 5716 5714 5713 5711 5709 5707 5706 5705 5703 5702 5700 5698 5696 5695 5693 5691 5688
5764 5761 5759 5758 5756 5754 5752 5750 5747 5745 5743 5742 5741 5739 5737 5736 5735 5733 5730 5727 5723 5717 5711 5712 5712 5712 5712 5710 5708 5706 5704 5702 5700 5699 5698 5697 5694 5692 5691 5689 5686 5684 5682
5763 5761 5759 5757 5755 5753 5751 5747 5745 5743 5740 5739 5738 5736 5735 5734 5732 5730 5728 5725 5721 5717 5711 5709 5709 5708 5707 5704 5701 5699 5697 5696 5694 5693 5691 5690 5688 5686 5684 5682 5679 5677 5675
5763 5761 5758 5756 5753 5751 5749 5745 5742 5740 5737 5735 5734 5733 5732 5731 5729 5727 5724 5722 5718 5716 5711 5705 5703 5702 5700 5698 5695 5693 5691 5689 5687 5685 5683 5682 5680 5678 5677 5675 5672 5670 5667
5762 5759 5757 5754 5751 5749 5746 5743 5739 5737 5735 5733 5732 5730 5728 5726 5724 5722 5720 5718 5715 5712 5709 5704 5699 5697 5694 5691 5688 5686 5683 5681 5679 5677 5675 5674 5672 5670 5668 5666 5664 5661 5658
5760 5757 5755 5752 5749 5747 5744 5741 5737 5734 5732 5731 5729 5727 5725 5723 5721 5719 5717 5714 5710 5706 5703 5699 5694 5691 5688 5685 5682 5678 5675 5673 5671 5670 5667 5665 5663 5661 5659 5657 5655 5652 5649
5759 5755 5752 5749 5746 5744 5741 5738 5735 5732 5729 5727 5726 5724 5722 5721 5719 5716 5713 5709 5706 5701 5697 5693 5689 5685 5682 5679 5676 5673 5669 5665 5663 5661 5659 5656 5654 5651 5649 5647 5645 5642 5640
5756 5752 5748 5745 5742 5740 5738 5736 5733 5729 5726 5723 5720 5718 5717 5715 5714 5711 5709 5706 5703 5698 5693 5689 5685 5681 5678 5676 5672 5669 5664 5659 5655 5653 5650 5646 5644 5641 5639 5637 5635 5632 5630
5751 5747 5743 5740 5737 5735 5734 5732 5729 5726 5722 5719 5715 5712 5710 5708 5706 5704 5701 5699 5697 5694 5692 5687 5682 5679 5675 5672 5668 5663 5658 5654 5651 5647 5643 5637 5635 5632 5630 5628 5625 5623 5620
5746 5742 5738 5735 5732 5729 5728 5726 5724 5721 5717 5714 5711 5708 5705 5701 5699 5697 5694 5691 5688 5686 5684 5682 5679 5676 5672 5668 5664 5659 5654 5648 5643 5639 5636 5630 5626 5623 5621 5619 5616 5613 5610
5742 5738 5734 5730 5726 5723 5722 5720 5718 5714 5710 5706 5704 5702 5699 5695 5693 5691 5687 5683 5681 5678 5677 5674 5672 5669 5666 5662 5657 5651 5645 5639 5634 5630 5628 5623 5618 5614 5612 5610 5607 5604 5601
5738 5734 5730 5726 5722 5718 5716 5714 5712 5707 5702 5698 5695 5693 5691 5688 5686 5684 5680 5676 5673 5670 5668 5666 5663 5660 5657 5653 5649 5645 5640 5634 5628 5623 5621 5616 5611 5607 5603 5601 5599 5596 5592